Hourly Data Report for July 02, 2021

LONDON CS
ONTARIO
Current Station Operator: ECCC - MSC

43°02'00.000" N
81°09'00.000" W
278.00 m
6144478
71622
WSN

Download Data

Hourly Data (July 2021)
Hourly Data Report for July 2, 2021
TIME
LST
Temp Definition
°C
Dew Point Definition
°C
Rel Hum Definition
%
Precip. Amount Definition
mm

Wind Dir Definition
10's deg

Wind Spd Definition
km/h
Visibility Definition
km
Stn Press Definition
kPa
Hmdx Definition


Wind Chill Definition


Weather Definition


00:00 14.6 12.0 84 0.0       98.08     LegendNANA
01:00 14.3 11.9 86 0.0       98.04     LegendNANA
02:00 14.2 12.0 87 0.0       98.01     LegendNANA
03:00 14.0 11.9 87 0.0       97.98     LegendNANA
04:00 14.2 12.2 88 0.0       98.02     LegendNANA
05:00 13.8 12.0 89 0.0       98.03     LegendNANA
06:00 14.4 12.3 87 0.0       98.08     LegendNANA
07:00 15.4 12.7 84 0.0       98.07     LegendNANA
08:00 17.2 12.8 75 0.0       98.08     LegendNANA
09:00 18.7 13.5 72 0.0       98.12     LegendNANA
10:00 19.6 12.4 63 0.0       98.08     LegendNANA
11:00 21.1 14.1 64 0.0       98.06 25   LegendNANA
12:00 22.0 13.0 57 0.0       98.02 25   LegendNANA
13:00 21.5 11.9 54 0.0       98.03     LegendNANA
14:00 18.1 13.4 74 0.0       98.03     LegendNANA
15:00 20.8 14.3 66 0.0       97.99     LegendNANA
16:00 23.5 10.3 43 0.0       97.97 25   LegendNANA
17:00 23.3 11.9 49 0.0       97.98 26   LegendNANA
18:00 22.1 12.9 56 0.0       98.04 25   LegendNANA
19:00 18.7 13.0 69 0.0       98.15     LegendNANA
20:00 16.6 12.7 78 0.0       98.15     LegendNANA
21:00 17.3 12.1 71 0.0       98.16     LegendNANA
22:00 16.0 10.3 69 0.0       98.18     LegendNANA
23:00 15.2 9.8 70 0.0       98.15     LegendNANA

Notes on Data Quality.

Legend

  • E = Estimated
  • M = Missing
  • NA = Not Available*
  • [empty] = Indicates an unobserved value
Date modified: